Location: Assche-ter-Heiden
(50.9174°N, 4.1574°E)
Time: 13:05:43
(UTC+00:00)

COSMOS 2455 - Pass Details

Date: 20 January 2020
Orbit: 902 x 907 km, 67.1° (Epoch: 17 February)

Event Time Altitude Azimuth Distance (km) Brightness Sun altitude
Rises 06:21:03 0° 227° (SW) 3,520 5.6 -11.5°
Reaches altitude 10° 06:23:35 10° 231° (SW) 2,583 4.9 -11.1°
Maximum altitude 06:29:31 62° 312° (NW) 1,016 2.9 -10.2°
Drops below altitude 10° 06:35:30 10° 33° (NNE) 2,600 5.4 -9.3°
Sets 06:38:04 0° 37° (NE) 3,545 6.2 -9.0°
